Portada
METAR-TAF:

METAR-TAF

Aeropuertos :

Brenner Field

Falls City, Nebraska, Estados Unidos

latitud: 40-04-44N, longitud: 095-35-31W, altitud: 300 m

Observación

El informe se hizo hace 1 hora y 6 minutos, a las 22:53 UTC
Viento 4 kt del oeste
Temperatura 4°C
Humedad 38%
Presión 1021 hPa
Visibilidad: 16.1 km
Cielo despejado

METAR: KFNB 302253Z AUTO 26004KT 10SM CLR 04/M09 A3016 RMK AO2 SLP221 T00391094

Hora: 17:59 (23:59 UTC)


TAF: falta

Observaciones y pronósticos meteorológicos de más de 4000 aeropuertos (mensajes METAR y TAF).

Los puntos amarillos y rojos representan las estaciones disponibles.

Ponga el ratón en el punto deseado para ver el nombre de la estación.

Haga clic para ver las observaciones y los pronósticos meteorológicos.

Para cambiar el mapa : haga clic en los botones verdes con una cruz de color negro para hacer un zoom, en el botón verde con un guión para alejar o en las flechas verdes para mapas adyacentes.


METAR-TAF: